Phuket, Thailand

6:24 AM ICT on February 20, 2017 (GMT +0700)
Phuket International

Weather History for VTSP - November, 2013

Change the Weather History Date:

Monday, November 11, 2013

  Actual Average Record
Temperature  
Mean Temperature 84 °F -  
Max Temperature 94 °F 88 °F 94 °F (2013)
Min Temperature 73 °F 75 °F 71 °F (2011)
Cooling Degree Days 18    
Growing Degree Days 34 (Base 50)    
Moisture  
Dew Point 75 °F    
Average Humidity 81    
Maximum Humidity 94    
Minimum Humidity 58    
Precipitation  
Precipitation 0.04 in 0.19 in - ()
Sea Level Pressure  
Sea Level Pressure 29.76 in    
Wind  
Wind Speed 3 mph ()    
Max Wind Speed 12 mph    
Max Gust Speed -    
Visibility 5.5 miles    
Events Rain    
Averages and records for this station are not official NWS values.
T = Trace of Precipitation, MM = Missing Value Source: Averaged Metar Reports

Daily Weather History Graph

Daily Weather History Graph

Search for Another Location

Airport or City:

Trip Planner

Search our weather history database for the weather conditions in past years. The results will help you decide how hot, cold, wet, or windy it might be!

Date:

Astronomy

Nov. 11, 2013 Rise Set
Actual Time 6:17 AM ICT 6:03 PM ICT
Civil Twilight 5:55 AM ICT 6:25 PM ICT
Nautical Twilight 5:30 AM ICT 6:51 PM ICT
Astronomical Twilight 5:05 AM ICT 7:16 PM ICT
Moon 1:18 PM ICT (11/11) 12:43 AM ICT (11/11)
Length of Visible Light 12h 30m
Length of Day
11h 46m
First Quarter, 61% of the Moon is Illuminated
Nov 11
First Quarter
Nov 17
Full
Nov 26
Last Quarter
Dec 3
New
Dec 9
First Quarter

Hourly Weather History & Observations

Time (ICT) Temp. Heat Index Dew Point Humidity Pressure Visibility Wind Dir Wind Speed Gust Speed Precip Events Conditions
12:00 AM 78.8 °F - 75.2 °F 89% 29.80 in 4.3 mi Variable 2.3 mph - N/A   Mostly Cloudy
12:30 AM 78.8 °F - 75.2 °F 89% 29.80 in 3.7 mi Variable 5.8 mph - N/A Rain Light Rain
1:00 AM 80 °F - 78 °F 90% 29.75 in 5 mi Calm Calm - - Rain Light Rain
1:00 AM 78.8 °F - 75.2 °F 89% 29.80 in 4.3 mi Variable 2.3 mph - N/A Rain Light Rain
1:30 AM 77.0 °F - 75.2 °F 94% 29.77 in 4.3 mi Calm Calm - N/A   Mostly Cloudy
2:00 AM 77.0 °F - 75.2 °F 94% 29.77 in 4.3 mi Calm Calm - N/A   Mostly Cloudy
2:30 AM 77.0 °F - 75.2 °F 94% 29.77 in 4.3 mi Calm Calm - N/A   Mostly Cloudy
3:00 AM 77.0 °F - 75.2 °F 94% 29.74 in 4.3 mi Calm Calm - N/A   Mostly Cloudy
3:30 AM 77.0 °F - 73.4 °F 89% 29.74 in 4.3 mi Calm Calm - N/A   Mostly Cloudy
4:00 AM 77.0 °F - 73.4 °F 89% 29.74 in 4.3 mi Calm Calm - N/A   Mostly Cloudy
4:30 AM 77.0 °F - 73.4 °F 89% 29.74 in 4.3 mi Calm Calm - N/A   Mostly Cloudy
5:00 AM 77.0 °F - 73.4 °F 89% 29.74 in 4.3 mi Calm Calm - N/A   Mostly Cloudy
5:30 AM 77.0 °F - 73.4 °F 89% 29.77 in 4.3 mi Calm Calm - N/A   Mostly Cloudy
6:00 AM 77.0 °F - 73.4 °F 89% 29.77 in 5.0 mi Calm Calm - N/A   Mostly Cloudy
6:30 AM 77.0 °F - 73.4 °F 89% 29.77 in 5.6 mi Calm Calm - N/A   Mostly Cloudy
7:00 AM 78 °F - 77 °F 94% 29.74 in 6 mi Calm Calm - -   Scattered Clouds
7:00 AM 77.0 °F - 75.2 °F 94% 29.77 in 5.6 mi Calm Calm - N/A   Mostly Cloudy
7:30 AM 78.8 °F - 75.2 °F 89% 29.80 in 6.2 mi Calm Calm - N/A   Mostly Cloudy
8:00 AM 80.6 °F 87.1 °F 77.0 °F 89% 29.80 in 6.2 mi East 3.5 mph - N/A   Mostly Cloudy
8:30 AM 82.4 °F 90.9 °F 77.0 °F 84% 29.80 in 6.2 mi East 5.8 mph - N/A   Mostly Cloudy
9:00 AM 84.2 °F 94.1 °F 77.0 °F 79% 29.80 in 6.2 mi East 8.1 mph - N/A   Mostly Cloudy
9:30 AM 84.2 °F 92.3 °F 75.2 °F 74% 29.80 in 6.2 mi ENE 5.8 mph - N/A   Mostly Cloudy
10:00 AM 86.0 °F 95.1 °F 75.2 °F 70% 29.80 in 6.2 mi East 5.8 mph - N/A   Mostly Cloudy
10:30 AM 87.8 °F 97.6 °F 75.2 °F 66% 29.80 in 6.2 mi East 6.9 mph - N/A   Mostly Cloudy
11:00 AM 87.8 °F 97.6 °F 75.2 °F 66% 29.77 in 6.2 mi East 10.4 mph - N/A   Mostly Cloudy
11:30 AM 86.0 °F 93.4 °F 73.4 °F 66% 29.77 in 6.2 mi East 5.8 mph - N/A   Mostly Cloudy
12:00 PM 86.0 °F 95.1 °F 75.2 °F 70% 29.77 in 6.2 mi WSW 6.9 mph - N/A   Mostly Cloudy
12:30 PM 86.0 °F 95.1 °F 75.2 °F 70% 29.77 in 6.2 mi WSW 5.8 mph - N/A   Mostly Cloudy
1:00 PM 88 °F - 78 °F 65% 29.73 in 6 mi Calm Calm - -   Scattered Clouds
1:00 PM 87.8 °F 97.6 °F 75.2 °F 66% 29.74 in 6.2 mi WSW 8.1 mph - N/A   Mostly Cloudy
1:30 PM 82.4 °F 89.5 °F 75.2 °F 79% 29.74 in 4.3 mi WSW 11.5 mph - N/A Rain Rain
2:00 PM 86.0 °F 95.1 °F 75.2 °F 70% 29.74 in 5.6 mi SW 6.9 mph - N/A   Mostly Cloudy
2:30 PM 87.8 °F 93.8 °F 71.6 °F 58% 29.71 in 6.2 mi WSW 5.8 mph - N/A   Mostly Cloudy
3:00 PM 86.0 °F 91.8 °F 71.6 °F 62% 29.68 in 6.2 mi WSW 9.2 mph - N/A   Mostly Cloudy
3:30 PM 87.8 °F 93.8 °F 71.6 °F 58% 29.68 in 6.2 mi WSW 5.8 mph - N/A   Mostly Cloudy
4:00 PM 86.0 °F 91.8 °F 71.6 °F 62% 29.71 in 6.2 mi WSW 8.1 mph - N/A   Mostly Cloudy
4:30 PM 84.2 °F 89.6 °F 71.6 °F 66% 29.71 in 6.2 mi WSW 5.8 mph - N/A   Mostly Cloudy
5:00 PM 84.2 °F 90.9 °F 73.4 °F 70% 29.68 in 6.2 mi SW 5.8 mph - N/A   Mostly Cloudy
5:30 PM 82.4 °F 88.2 °F 73.4 °F 74% 29.71 in 6.2 mi WSW 4.6 mph - N/A   Mostly Cloudy
6:00 PM 80.6 °F 86.2 °F 75.2 °F 84% 29.71 in 6.2 mi SSW 3.5 mph - N/A   Mostly Cloudy
6:30 PM 80.6 °F 86.2 °F 75.2 °F 84% 29.74 in 6.2 mi Calm Calm - N/A   Mostly Cloudy
7:00 PM 83 °F - 78 °F 79% 29.70 in 6 mi Calm Calm - -   Scattered Clouds
7:00 PM 78.8 °F - 75.2 °F 89% 29.74 in 6.2 mi Calm Calm - N/A   Mostly Cloudy
7:30 PM 78.8 °F - 75.2 °F 89% 29.77 in 6.2 mi Calm Calm - N/A   Mostly Cloudy
8:00 PM 78.8 °F - 75.2 °F 89% 29.77 in 6.2 mi Calm Calm - N/A   Mostly Cloudy
8:30 PM 78.8 °F - 75.2 °F 89% 29.77 in 5.6 mi Calm Calm - N/A   Mostly Cloudy
9:00 PM 78.8 °F - 75.2 °F 89% 29.77 in 5.6 mi Variable 2.3 mph - N/A   Mostly Cloudy
9:30 PM 78.8 °F - 75.2 °F 89% 29.80 in 5.6 mi SSE 2.3 mph - N/A   Mostly Cloudy
10:00 PM 78.8 °F - 75.2 °F 89% 29.80 in 5.6 mi SE 2.3 mph - N/A   Mostly Cloudy
10:30 PM 78.8 °F - 75.2 °F 89% 29.80 in 5.6 mi Calm Calm - N/A   Mostly Cloudy
11:00 PM 78.8 °F - 75.2 °F 89% 29.80 in 5.6 mi East 9.2 mph - N/A   Mostly Cloudy